Tracking 19562 objects as of 24-Mar-2019
HD Live streaming from Space Station
objects crossing your sky now

SATCOM 1R

Track SATCOM 1R now!
SATCOM 1R is classified as:


NORAD ID: 13984
Int'l Code: 1983-030A
Perigee: 35,868.5 km
Apogee: 35,949.4 km
Inclination: 15.2 °
Period: 1,442.0 minutes
Semi major axis: 42279 km
RCS: 3.2 m2 (large)
Launch date: April 11, 1983
Source: United States (US)
Launch site: AIR FORCE EASTERN TEST RANGE (AFETR)
aabbcc
Your satellite tracking list
Your tracking list is empty




NASA's NSSDC Master Catalog

Two Line Element Set (TLE):
1 13984U 83030A   19077.30769642 -.00000240 +00000-0 +00000-0 0  9997
2 13984 015.1825 000.3971 0009569 024.5813 241.1347 00.99862218104036
Source of the keplerian elements: AFSPC